{"data":{"norad_id":42738,"epoch":"2026-09-19T19:35:38.669856Z","epoch_age_seconds":73521,"freshness":"FRESH","line1":"1 42738U 17028A   26262.81641979 -.00000160  00000+0  00000+0 0  9991","line2":"2 42738  39.2923 241.7607 0749522 270.5086 281.5750  1.00259490  8576","mean_motion":1.0025949,"eccentricity":0.0749522,"inclination_deg":39.2923,"raan_deg":241.7607,"arg_perigee_deg":270.5086,"mean_anomaly_deg":281.575,"bstar":0,"rev_number":857,"period_min":1436.273015153,"perigee_km":32629.444258581,"apogee_km":38950.6398379,"semimajor_km":42168.17904824,"source":"CELESTRAK","updated_at":"2026-09-20T09:00:46.837109Z"}}